Location: D�pe
(52.6057°N, 8.1808°E)
Time: 07:35:30
(UTC+00:00)

IRS-1C Rocket - Pass Details

Date: 29 October 2020
Orbit: 800 x 805 km, 99.0° (Epoch: 01 December)

Event Time Altitude Azimuth Distance (km) Brightness Sun altitude
Rises 16:50:20 0° 146° (SE) 3,308 7.1 -7.8°
Reaches altitude 10° 16:52:41 10° 142° (SE) 2,382 6.3 -8.2°
Maximum altitude 16:57:48 53° 66° (ENE) 984 4.2 -8.9°
Drops below altitude 10° 17:02:56 10° 351° (N) 2,400 6.6 -9.7°
Sets 17:05:19 0° 347° (NNW) 3,335 7.4 -10.1°
